Location: Newark
(40.4881°N, 5.6117°W)
Time: 18:06:58
(UTC+00:00)

Hubble Space Telescope - Visible Passes

Search period start: 23 October 2019 00:00
Search period end: 02 November 2019 00:00
Orbit: 536 x 540 km, 28.5° (Epoch: 22 October)

Date Brightness Start Highest point End Pass type
(mag) Time Alt. Az. Time Alt. Az. Time Alt. Az.
29 Oct 3.4 06:21:47 10° SSW 06:23:47 13° S 06:25:47 10° SE visible
30 Oct 3.3 06:10:51 10° SSW 06:13:05 14° S 06:15:18 10° SE visible
31 Oct 3.2 06:00:01 10° SSW 06:02:22 15° S 06:04:45 10° SE visible
01 Nov 3.1 05:49:15 10° SW 05:51:40 15° S 05:54:07 10° SE visible
